Wind_Speed
1 2 2 2 2 2 2 3 3 1 1 2 3 3 4 4 4 4 5 5 5 5 5 6 5 5 6 6 6 7 7 7 7 6 6 6 6 7 7 7 7 7 7
1 2 2 2 2 2 2 2 2 2 1 2 3 4 5 4 5 5 5 6 6 6 6 7 7 7 6 6 6 7 7 8 8 7 8 8 8 8 8 8 8 8 8
1 2 2 3 3 3 3 2 3 2 3 3 3 3 4 5 5 5 6 7 7 7 7 7 7 7 7 7 7 7 8 8 9 9 9 9 9 9 9 9 9 9 9
2 2 3 3 3 3 3 3 3 4 4 4 5 5 5 6 7 6 7 7 7 8 8 9 8 8 8 8 8 8 9 10 9 9 9 9 9 10 10 10 10 10 10
3 3 4 4 4 4 4 5 5 5 5 5 5 6 6 6 7 8 8 8 8 9 9 9 9 9 9 9 9 9 10 10 10 10 10 10 11 11 11 11 11 11 12
4 4 5 5 5 5 6 6 6 6 7 7 6 6 7 7 7 8 8 8 9 9 10 10 10 10 10 11 11 11 10 11 11 12 12 12 12 12 11 12 12 13 13
4 5 5 5 6 7 7 7 7 7 7 8 8 8 8 8 8 9 9 10 10 10 10 10 11 11 11 11 12 12 12 12 13 13 14 13 13 13 13 13 13 14 14
6 6 7 7 7 7 8 8 8 8 8 8 9 9 10 10 10 11 11 11 11 11 11 12 12 12 12 12 12 12 13 13 13 14 14 15 15 15 15 15 14 15 16
7 8 8 8 8 9 9 9 9 9 9 10 10 10 10 11 11 12 13 13 12 13 13 13 13 14 14 14 13 14 14 14 14 15 15 16 16 16 16 16 16 16 16
9 9 9 9 10 10 10 10 10 10 11 11 11 11 12 12 13 13 14 13 13 14 14 15 15 15 15 15 15 16 16 16 16 16 17 17 17 17 17 17 16 17 17
10 10 11 11 11 11 11 11 11 11 12 12 13 13 13 13 14 14 15 15 16 16 17 17 17 16 17 16 16 16 16 17 17 18 18 18 18 18 18 18 18 17 17
11 12 12 13 13 12 12 12 12 13 13 13 14 14 14 14 14 15 15 16 17 18 18 18 18 18 18 18 18 17 17 17 18 19 19 19 18 18 18 18 18 17 17
12 13 14 14 14 13 14 14 14 14 15 15 15 15 15 15 16 16 17 17 18 18 18 18 19 19 19 19 19 19 19 19 20 20 20 20 19 19 19 18 18 19 18
14 15 15 15 16 16 16 15 16 16 16 16 16 16 16 17 17 18 19 19 19 19 19 20 20 20 20 20 20 20 20 20 20 20 20 21 20 20 20 19 19 19 19
17 17 17 17 17 17 18 18 18 18 18 17 18 18 18 18 19 19 19 20 20 20 21 21 21 21 21 21 21 21 21 21 21 21 21 21 21 21 21 21 21 20 20
19 18 18 18 18 18 19 19 20 20 20 20 19 19 19 19 20 21 21 21 21 21 21 22 22 22 23 23 23 22 22 22 22 22 21 21 21 21 22 22 22 21 21
18 19 19 18 18 18 19 20 20 21 21 21 21 21 21 21 21 22 22 22 23 22 22 22 23 23 24 24 23 23 23 23 22 22 22 22 22 22 22 22 22 22 22
19 19 19 19 19 19 20 19 19 21 21 22 22 22 22 22 23 23 23 23 22 22 22 22 23 24 24 24 24 24 23 23 23 23 22 22 23 22 21 21 22 23 23
20 20 20 19 19 20 20 20 20 20 20 21 22 23 23 22 22 23 23 23 22 22 23 23 24 24 24 25 25 25 24 24 24 24 23 23 23 22 22 22 22 22 23
21 21 21 20 20 20 20 20 20 19 19 20 21 21 22 22 22 22 22 22 22 23 24 24 24 24 25 24 25 25 25 25 24 24 24 24 24 23 22 22 22 22 22
21 21 21 20 21 20 20 21 21 20 20 20 21 21 21 21 21 21 22 22 23 24 24 23 24 24 24 25 24 25 24 25 25 24 24 24 24 24 23 23 22 22 22
22 21 21 21 21 21 21 21 21 21 21 21 22 22 22 21 20 21 22 22 23 24 24 24 24 25 25 25 25 25 24 24 25 25 25 25 24 24 24 23 23 23 23
23 22 22 21 22 22 22 21 21 21 21 21 22 23 23 22 21 21 22 22 23 23 23 23 24 24 24 25 25 25 25 24 24 24 24 25 25 24 24 23 23 23 23
23 23 23 23 24 24 23 23 23 22 22 22 22 23 23 22 22 23 23 23 23 23 23 24 25 25 24 24 24 24 24 23 23 24 24 24 25 25 24 24 24 23 23
25 25 24 25 24 25 24 24 24 23 22 22 22 23 23 23 23 24 24 24 24 24 24 25 25 24 24 24 24 24 23 23 23 24 25 24 24 25 25 25 24 24 23
25 25 25 25 26 26 25 24 23 23 23 23 23 23 24 24 24 24 24 24 24 24 24 25 24 25 24 24 24 23 23 23 22 22 24 24 24 24 25 25 24 24 24
Wind_Direction
19 17 2 353 350 345 343 348 357 4 231 196 202 215 214 215 222 223 221 221 228 236 240 245 247 247 244 247 251 256 259 263 260 259 264 262 262 266 266 266 267 265 262
335 345 346 340 334 318 318 324 326 326 278 238 219 218 220 221 231 234 231 229 233 242 248 253 253 256 258 259 260 262 263 264 264 261 267 266 265 269 269 264 265 264 261
314 321 325 322 319 310 300 296 282 277 262 244 233 218 218 227 234 239 237 238 240 246 251 255 259 258 261 262 265 264 266 262 263 265 270 269 267 269 268 268 268 266 264
290 305 308 311 307 301 295 289 277 270 266 257 253 244 240 240 245 246 243 245 244 243 247 254 256 257 258 260 266 266 264 263 264 265 269 270 272 275 274 270 271 268 266
286 293 298 309 306 298 291 286 277 268 262 257 253 252 251 250 251 250 249 249 249 251 253 253 255 259 262 263 268 268 263 264 268 267 269 272 274 275 274 274 274 268 268
284 287 291 299 301 298 295 292 286 273 267 263 259 256 256 257 257 254 256 255 255 259 260 258 258 259 264 265 266 267 266 265 268 267 267 272 272 272 272 273 276 270 268
286 290 290 291 293 296 296 293 285 276 270 266 266 265 259 258 257 257 258 261 263 262 259 261 260 262 265 266 266 268 267 265 265 266 267 268 269 269 271 273 274 271 269
284 287 286 284 287 291 292 289 282 276 274 270 269 267 267 268 262 260 260 263 267 265 261 263 263 264 264 266 268 268 268 266 266 266 267 267 265 269 270 273 273 273 268
287 286 285 283 284 286 286 282 277 274 272 273 274 273 273 272 270 266 265 264 263 264 265 266 263 262 263 265 266 267 268 267 268 266 268 272 270 268 271 274 275 273 273
289 288 286 286 284 282 282 279 277 274 272 273 274 273 272 271 271 270 269 266 262 263 266 269 267 265 265 266 268 270 268 269 271 269 269 271 272 270 273 274 273 273 272
286 282 282 283 284 282 280 278 278 275 272 272 272 272 271 271 270 272 272 270 267 265 267 269 268 269 268 269 271 273 271 270 271 269 271 273 272 272 272 274 273 272 271
287 284 284 285 283 281 280 279 277 275 273 271 270 269 269 269 270 271 272 272 270 268 267 268 267 271 271 272 273 272 272 271 271 273 275 275 273 275 275 273 272 273 272
289 288 286 286 283 280 281 280 277 274 273 271 269 269 269 270 271 271 270 270 271 269 267 267 268 270 269 269 271 272 273 272 270 271 273 275 275 275 274 273 272 271 271
291 291 289 285 284 280 279 278 277 273 272 272 270 270 269 270 271 271 271 269 267 268 268 268 267 268 268 268 270 272 273 272 271 272 272 273 273 273 272 272 271 271 269
289 288 288 285 284 283 279 276 275 272 270 271 271 271 271 271 270 270 269 267 265 266 269 269 268 268 269 270 271 272 272 272 272 272 271 272 274 272 271 270 270 270 270
285 285 287 286 286 284 281 278 275 272 270 270 270 271 272 271 270 270 269 268 266 266 266 267 267 268 269 270 271 271 271 271 270 271 272 274 275 273 270 268 268 267 268
290 287 288 288 287 285 284 282 279 278 273 271 272 272 273 273 271 270 270 270 268 267 267 268 269 269 269 269 269 270 270 270 271 272 273 273 273 274 270 268 268 266 267
290 289 288 289 287 285 285 286 283 282 275 273 274 276 276 275 274 273 271 271 270 268 268 269 271 271 270 269 268 269 271 271 270 270 271 272 273 273 270 269 269 267 266
290 287 287 289 288 285 284 285 283 283 281 280 279 278 276 276 277 275 273 271 270 269 269 270 271 271 270 270 269 269 270 270 270 270 270 272 273 271 269 270 270 268 266
295 291 288 288 287 286 285 284 283 284 283 284 284 282 279 276 275 274 273 272 272 271 271 270 269 270 270 271 271 271 270 269 269 269 269 270 272 270 270 269 268 267 266
300 298 293 291 291 289 285 284 284 283 283 283 284 284 282 278 277 275 274 274 273 272 272 271 269 270 270 271 273 273 271 270 269 268 268 269 269 268 267 267 266 265 264
297 299 296 294 293 291 287 284 281 281 283 284 283 282 280 280 281 278 276 275 275 273 272 272 272 272 273 273 274 274 272 271 270 268 269 270 269 267 267 266 266 264 262
294 295 296 295 296 294 290 286 283 282 283 285 284 283 280 280 280 280 278 275 275 274 273 273 273 274 274 275 275 275 274 272 270 268 268 269 269 268 266 265 265 265 263
290 291 293 293 292 292 288 286 284 283 283 283 283 283 282 281 281 281 279 277 275 275 274 273 273 272 272 273 275 276 274 272 271 269 269 269 267 267 264 264 264 263 260
287 288 289 291 290 290 288 285 285 283 283 283 283 282 281 281 280 280 279 278 277 277 277 275 273 272 272 272 273 273 273 273 272 271 271 269 268 266 264 265 264 262 259
289 289 290 292 290 289 287 284 284 285 284 282 281 281 281 280 280 280 279 278 278 277 276 274 273 272 271 271 272 271 271 271 271 271 271 270 269 266 264 263 261 261 259
Height
5876 5875 5875 5874 5874 5874 5873 5872 5872 5872 5871 5872 5872 5873 5873 5874 5875 5876 5877 5877 5878 5879 5879 5880 5880 5880 5881 5881 5882 5882 5883 5883 5883 5883 5883 5883 5883 5883 5883 5884 5884 5884 5884
5875 5875 5875 5874 5874 5873 5873 5872 5872 5872 5872 5872 5872 5872 5873 5873 5874 5875 5876 5876 5877 5878 5878 5878 5879 5879 5879 5880 5880 5880 5881 5881 5881 5881 5881 5881 5881 5881 5882 5882 5882 5882 5882
5874 5874 5874 5874 5873 5873 5872 5872 5872 5872 5872 5872 5872 5872 5872 5873 5873 5874 5874 5875 5875 5876 5876 5877 5877 5877 5878 5878 5878 5878 5879 5879 5879 5879 5879 5880 5880 5880 5880 5880 5880 5880 5880
5874 5873 5873 5873 5872 5872 5872 5871 5871 5871 5871 5871 5871 5871 5871 5872 5872 5872 5873 5873 5874 5874 5875 5875 5875 5875 5876 5876 5876 5876 5876 5877 5877 5877 5877 5877 5877 5877 5877 5877 5877 5878 5878
5872 5872 5872 5872 5871 5871 5871 5870 5870 5870 5870 5869 5869 5869 5870 5870 5871 5871 5871 5872 5872 5872 5873 5873 5873 5873 5874 5874 5874 5874 5874 5874 5874 5874 5875 5875 5875 5875 5875 5875 5875 5875 5875
5871 5871 5871 5870 5870 5869 5869 5869 5868 5868 5868 5868 5868 5868 5868 5868 5869 5869 5869 5869 5870 5870 5870 5871 5871 5871 5871 5872 5872 5872 5871 5871 5872 5872 5872 5872 5872 5872 5872 5872 5872 5872 5872
5869 5869 5869 5869 5868 5868 5867 5867 5867 5866 5866 5866 5866 5866 5866 5866 5866 5867 5867 5867 5867 5867 5868 5868 5868 5868 5869 5869 5869 5869 5869 5868 5868 5868 5868 5869 5869 5869 5869 5869 5869 5869 5869
5867 5867 5867 5867 5866 5866 5865 5864 5864 5864 5864 5863 5863 5863 5863 5864 5863 5864 5864 5864 5864 5864 5865 5865 5865 5865 5865 5866 5866 5866 5866 5866 5865 5865 5865 5865 5865 5865 5865 5865 5865 5865 5865
5865 5865 5865 5864 5864 5863 5863 5862 5861 5861 5861 5861 5861 5861 5861 5861 5860 5860 5861 5861 5861 5861 5861 5861 5861 5862 5862 5862 5862 5862 5862 5862 5862 5862 5861 5861 5861 5861 5861 5860 5861 5861 5860
5863 5862 5862 5862 5861 5860 5860 5859 5858 5858 5858 5858 5858 5857 5857 5857 5857 5857 5857 5857 5857 5858 5858 5858 5858 5858 5858 5858 5858 5858 5858 5858 5858 5858 5857 5857 5857 5857 5857 5856 5856 5856 5856
5860 5860 5859 5858 5858 5857 5856 5855 5855 5855 5854 5854 5854 5854 5853 5853 5853 5853 5853 5853 5853 5853 5853 5853 5853 5853 5853 5854 5853 5854 5854 5854 5854 5853 5853 5853 5853 5853 5852 5852 5852 5852 5852
5857 5857 5856 5855 5854 5853 5852 5851 5851 5851 5851 5850 5850 5849 5849 5849 5849 5849 5849 5848 5848 5849 5849 5849 5849 5849 5849 5849 5849 5849 5849 5849 5849 5849 5849 5849 5848 5848 5847 5847 5847 5847 5847
5854 5853 5852 5851 5850 5849 5848 5847 5847 5846 5846 5846 5845 5845 5845 5845 5844 5844 5844 5844 5844 5844 5844 5844 5844 5844 5844 5844 5844 5844 5844 5844 5844 5844 5844 5843 5843 5843 5843 5842 5842 5842 5842
5850 5849 5848 5847 5846 5845 5844 5843 5842 5842 5841 5841 5841 5840 5840 5840 5839 5839 5839 5839 5839 5839 5838 5838 5838 5838 5838 5838 5838 5838 5838 5838 5838 5838 5838 5838 5838 5837 5837 5837 5837 5837 5837
5846 5844 5843 5842 5841 5840 5839 5838 5838 5837 5836 5836 5835 5835 5834 5834 5834 5833 5833 5833 5834 5833 5833 5833 5832 5832 5832 5832 5832 5832 5832 5832 5832 5832 5832 5832 5832 5831 5831 5832 5832 5831 5831
5841 5840 5838 5837 5836 5835 5833 5833 5832 5831 5830 5830 5829 5829 5829 5828 5828 5828 5827 5827 5827 5827 5827 5826 5826 5826 5826 5826 5826 5826 5826 5826 5826 5826 5826 5826 5825 5825 5825 5826 5826 5826 5826
5836 5834 5833 5832 5830 5829 5828 5827 5826 5825 5824 5824 5823 5823 5823 5822 5821 5821 5821 5820 5820 5820 5820 5820 5819 5819 5819 5819 5819 5819 5819 5819 5819 5819 5819 5819 5819 5819 5819 5819 5819 5820 5820
5831 5830 5828 5827 5825 5824 5823 5821 5820 5819 5818 5818 5817 5816 5816 5815 5815 5814 5814 5814 5813 5813 5813 5814 5813 5813 5812 5812 5812 5812 5812 5813 5813 5813 5813 5813 5813 5813 5812 5813 5813 5813 5813
5825 5824 5823 5821 5819 5818 5817 5816 5815 5813 5812 5811 5811 5810 5809 5809 5808 5807 5807 5807 5806 5806 5806 5807 5806 5806 5805 5805 5805 5805 5806 5806 5806 5806 5806 5806 5806 5806 5806 5806 5806 5806 5807
5820 5818 5816 5815 5813 5812 5811 5809 5808 5807 5806 5805 5804 5804 5803 5802 5801 5800 5800 5800 5800 5799 5799 5799 5799 5799 5799 5798 5798 5799 5798 5798 5799 5799 5799 5799 5799 5799 5799 5799 5800 5800 5800
5814 5812 5810 5809 5807 5806 5804 5803 5802 5801 5800 5799 5798 5797 5796 5795 5794 5794 5793 5793 5793 5792 5792 5792 5792 5792 5792 5792 5791 5791 5791 5791 5791 5792 5792 5792 5792 5793 5793 5793 5793 5793 5793
5808 5806 5804 5803 5801 5800 5798 5797 5796 5795 5794 5793 5792 5791 5790 5789 5788 5787 5787 5786 5786 5785 5785 5785 5785 5785 5785 5784 5784 5784 5784 5784 5785 5785 5785 5785 5785 5786 5785 5786 5786 5786 5786
5801 5800 5798 5797 5795 5793 5792 5791 5789 5788 5787 5786 5786 5785 5783 5783 5781 5781 5780 5779 5778 5778 5778 5778 5778 5778 5778 5777 5777 5777 5777 5777 5777 5777 5778 5778 5778 5778 5778 5778 5778 5779 5779
5795 5793 5791 5790 5789 5787 5785 5784 5783 5782 5781 5780 5778 5777 5776 5775 5774 5773 5773 5772 5771 5770 5770 5771 5771 5770 5770 5770 5770 5770 5770 5770 5770 5770 5770 5771 5770 5771 5771 5770 5771 5771 5772
5788 5786 5784 5783 5782 5780 5779 5777 5776 5775 5774 5773 5771 5770 5769 5768 5767 5766 5765 5764 5763 5763 5762 5762 5763 5763 5763 5763 5763 5763 5763 5763 5763 5762 5762 5763 5763 5762 5763 5763 5763 5764 5764
5780 5779 5777 5776 5774 5773 5771 5770 5769 5768 5767 5765 5764 5762 5761 5760 5759 5758 5757 5756 5756 5755 5755 5755 5755 5755 5755 5756 5755 5756 5755 5755 5755 5755 5754 5754 5754 5754 5755 5756 5756 5757 5757